Location: Peterborough
(44.3091°N, 78.3197°W)
Time: 17:46:31
(UTC-04:00)

Transit 4A - Pass Details

Date: 31 March 2023
Orbit: 864 x 980 km, 66.8° (Epoch: 04 June)

Event Time Altitude Azimuth Distance (km) Brightness Sun altitude
Rises 16:57:44 0° 308° (NW) 3,599 11.3 27.5°
Reaches altitude 10° 17:02:14 10° 278° (W) 2,676 11.4 26.7°
Maximum altitude 17:04:13 12° 259° (W) 2,566 12.0 26.4°
Drops below altitude 10° 17:06:14 10° 241° (WSW) 2,692 12.1 26.0°
Sets 17:10:49 0° 210° (SSW) 3,651 11.7 25.3°
